Location: Sternwarte auf dem Internationalen Platz Vogelsang IP
(50.5721°N, 6.4398°E)
Time: 21:36:46
(UTC+01:00)

Altair - Visible Passes

Search period start: 05 December 2025 00:00
Search period end: 15 December 2025 00:00
Orbit: 1501 x 1682 km, 47.2° (Epoch: 05 December)

Date Brightness Start Highest point End Pass type
(mag) Time Alt. Az. Time Alt. Az. Time Alt. Az.
05 Dec 9.5 01:52:25 14° E 01:52:25 14° E 01:53:27 10° E visible
05 Dec 7.7 03:50:26 59° ESE 03:50:26 59° ESE 03:57:55 10° E visible
05 Dec 7.5 05:48:27 34° W 05:52:59 66° SSW 06:02:05 10° ESE visible
06 Dec 8.1 03:26:38 46° ESE 03:26:38 46° ESE 03:32:43 10° E visible
06 Dec 7.5 05:24:39 46° WSW 05:27:47 68° SSW 05:36:56 10° ESE visible
06 Dec 8.2 07:23:06 10° W 07:31:29 38° SW 07:39:40 10° SSE visible
07 Dec 8.6 03:02:50 34° E 03:02:50 34° E 03:07:31 10° E visible
07 Dec 7.4 05:00:50 59° WSW 05:02:35 69° SSW 05:11:46 10° ESE visible
07 Dec 8.1 06:58:51 14° W 07:06:22 40° SW 07:14:42 10° SSE visible
08 Dec 9.0 02:39:02 25° E 02:39:02 25° E 02:42:19 10° E visible
08 Dec 7.4 04:37:03 70° SSW 04:37:23 71° S 04:46:36 10° ESE visible
08 Dec 8.0 06:35:04 20° W 06:41:14 43° SW 06:49:42 10° SSE visible
09 Dec 9.3 02:15:15 18° E 02:15:15 18° E 02:17:07 10° E visible
09 Dec 7.5 04:13:16 66° SSE 04:13:16 66° SSE 04:21:26 10° ESE visible
09 Dec 7.9 06:11:18 27° W 06:16:06 45° SSW 06:24:41 10° SE visible
10 Dec 9.6 01:51:30 12° E 01:51:30 12° E 01:51:55 10° E visible
10 Dec 7.9 03:49:31 52° ESE 03:49:31 52° ESE 03:56:15 10° ESE visible
10 Dec 7.8 05:47:32 35° WSW 05:50:58 48° SSW 05:59:39 10° SE visible
10 Dec 8.9 07:48:02 10° W 07:53:46 18° SW 07:59:24 10° SSW visible
11 Dec 8.3 03:25:47 39° ESE 03:25:47 39° ESE 03:31:05 10° ESE visible
11 Dec 7.7 05:23:49 44° WSW 05:25:49 50° SSW 05:34:36 10° SE visible
11 Dec 8.8 07:22:31 10° W 07:28:43 20° SW 07:34:48 10° S visible
12 Dec 8.8 03:02:05 29° ESE 03:02:05 29° ESE 03:05:54 10° E visible
12 Dec 7.6 05:00:07 52° SW 05:00:39 53° SSW 05:09:32 10° SE visible
12 Dec 8.7 06:58:08 13° W 07:03:39 22° SW 07:10:09 10° S visible
13 Dec 9.2 02:38:25 20° E 02:38:25 20° E 02:40:42 10° E visible
13 Dec 7.7 04:36:27 53° S 04:36:27 53° S 04:44:28 10° SE visible
13 Dec 8.6 06:34:29 18° W 06:38:35 24° SW 06:45:26 10° S visible
14 Dec 9.5 02:14:47 13° E 02:14:47 13° E 02:15:31 10° E visible
14 Dec 8.0 04:12:49 46° SSE 04:12:49 46° SSE 04:19:22 10° SE visible
14 Dec 8.4 06:10:51 23° WSW 06:13:31 26° SW 06:20:41 10° S visible
